GFSSW_prec_pwat_021.txt.gz
Precipitable_Water
0.53 0.53 0.52 0.52 0.51 0.52 0.52 0.52 0.53 0.54 0.54 0.53 0.51 0.49 0.47 0.45 0.40 0.34 0.20 0.30 0.32 0.37 0.35 0.32 0.31 0.31 0.31 0.27 0.29 0.28 0.14 0.12 0.17 0.19 0.23 0.30 0.28 0.33 0.35 0.30 0.31 0.32 0.30 0.32 0.37
0.54 0.53 0.53 0.53 0.53 0.54 0.55 0.56 0.57 0.58 0.59 0.59 0.57 0.55 0.52 0.49 0.33 0.25 0.38 0.42 0.39 0.37 0.28 0.24 0.23 0.26 0.22 0.25 0.27 0.19 0.14 0.14 0.24 0.26 0.26 0.29 0.29 0.30 0.30 0.30 0.30 0.32 0.36 0.38 0.38
0.55 0.55 0.56 0.56 0.57 0.58 0.60 0.61 0.62 0.64 0.65 0.66 0.63 0.61 0.58 0.54 0.28 0.24 0.41 0.40 0.38 0.39 0.33 0.33 0.31 0.27 0.20 0.26 0.25 0.24 0.15 0.22 0.25 0.30 0.32 0.30 0.30 0.36 0.32 0.29 0.33 0.33 0.34 0.38 0.38
0.57 0.57 0.58 0.59 0.61 0.64 0.66 0.67 0.69 0.71 0.73 0.73 0.71 0.69 0.65 0.53 0.20 0.32 0.39 0.37 0.40 0.40 0.34 0.31 0.29 0.24 0.20 0.19 0.28 0.21 0.28 0.30 0.31 0.34 0.34 0.31 0.35 0.34 0.35 0.35 0.41 0.39 0.40 0.40 0.39
0.60 0.61 0.62 0.64 0.66 0.68 0.71 0.73 0.76 0.79 0.80 0.78 0.74 0.71 0.55 0.38 0.38 0.60 0.54 0.48 0.43 0.40 0.33 0.30 0.28 0.27 0.21 0.25 0.28 0.29 0.31 0.35 0.37 0.38 0.36 0.36 0.34 0.35 0.36 0.41 0.43 0.43 0.44 0.44 0.43
0.63 0.65 0.67 0.68 0.69 0.72 0.77 0.82 0.84 0.85 0.84 0.77 0.75 0.73 0.47 0.31 0.58 0.64 0.57 0.51 0.46 0.43 0.39 0.39 0.36 0.38 0.32 0.32 0.31 0.35 0.35 0.34 0.34 0.34 0.34 0.32 0.34 0.37 0.38 0.43 0.43 0.44 0.44 0.45 0.44
0.67 0.70 0.71 0.71 0.73 0.80 0.86 0.89 0.88 0.87 0.84 0.80 0.77 0.69 0.48 0.41 0.65 0.71 0.64 0.56 0.55 0.50 0.42 0.48 0.48 0.42 0.41 0.35 0.41 0.38 0.32 0.34 0.34 0.34 0.34 0.38 0.34 0.35 0.40 0.42 0.41 0.43 0.45 0.47 0.48
0.74 0.74 0.73 0.77 0.83 0.89 0.92 0.92 0.90 0.89 0.84 0.81 0.78 0.66 0.43 0.58 0.73 0.67 0.65 0.60 0.62 0.59 0.54 0.55 0.53 0.47 0.44 0.45 0.40 0.36 0.36 0.29 0.35 0.37 0.39 0.37 0.29 0.37 0.41 0.40 0.39 0.41 0.44 0.45 0.47
0.79 0.81 0.85 0.89 0.95 0.98 0.97 0.96 0.91 0.90 0.87 0.86 0.69 0.57 0.41 0.60 0.54 0.62 0.64 0.54 0.57 0.58 0.58 0.58 0.55 0.47 0.46 0.37 0.33 0.34 0.27 0.29 0.30 0.39 0.37 0.34 0.30 0.37 0.41 0.40 0.40 0.43 0.45 0.45 0.45
0.86 0.89 0.93 0.98 1.03 1.03 1.03 1.01 0.92 0.88 0.86 0.83 0.74 0.52 0.54 0.46 0.53 0.57 0.61 0.57 0.51 0.52 0.50 0.50 0.47 0.41 0.41 0.35 0.26 0.28 0.28 0.29 0.30 0.35 0.36 0.33 0.33 0.39 0.44 0.44 0.42 0.44 0.45 0.44 0.43
0.95 0.95 0.98 1.03 1.06 1.08 1.02 0.88 0.68 0.63 0.72 0.54 0.52 0.52 0.50 0.57 0.61 0.54 0.60 0.56 0.54 0.48 0.40 0.46 0.39 0.37 0.39 0.40 0.38 0.35 0.32 0.31 0.36 0.40 0.37 0.36 0.36 0.40 0.44 0.43 0.41 0.42 0.42 0.42 0.42
1.07 1.07 1.10 1.12 1.13 1.14 1.06 0.75 0.72 0.76 0.55 0.72 0.71 0.65 0.67 0.67 0.56 0.58 0.64 0.49 0.48 0.42 0.46 0.43 0.38 0.46 0.46 0.43 0.39 0.36 0.33 0.33 0.37 0.41 0.38 0.36 0.36 0.41 0.41 0.40 0.41 0.42 0.42 0.42 0.43
1.15 1.16 1.19 1.22 1.21 1.14 0.96 0.87 0.99 0.95 0.65 0.65 0.71 0.68 0.68 0.70 0.60 0.62 0.64 0.58 0.53 0.48 0.46 0.42 0.47 0.52 0.48 0.44 0.39 0.37 0.35 0.35 0.35 0.40 0.41 0.37 0.32 0.35 0.39 0.42 0.44 0.45 0.45 0.43 0.41
1.15 1.18 1.22 1.23 1.07 1.06 0.92 1.07 1.08 1.01 0.54 0.52 0.59 0.64 0.66 0.68 0.59 0.73 0.72 0.62 0.54 0.50 0.52 0.49 0.54 0.50 0.46 0.42 0.41 0.34 0.42 0.40 0.38 0.35 0.27 0.36 0.21 0.29 0.35 0.37 0.41 0.44 0.43 0.42 0.41
1.16 1.18 1.23 1.22 1.04 0.94 1.03 1.12 1.08 0.87 0.33 0.57 0.58 0.71 0.67 0.63 0.62 0.64 0.75 0.66 0.55 0.53 0.52 0.45 0.46 0.45 0.42 0.43 0.46 0.39 0.45 0.40 0.36 0.32 0.30 0.29 0.25 0.26 0.34 0.33 0.37 0.40 0.41 0.42 0.43
1.21 1.21 1.26 1.18 1.19 1.19 1.16 1.12 0.94 0.55 0.33 0.49 0.57 0.52 0.52 0.58 0.58 0.60 0.62 0.66 0.63 0.53 0.52 0.49 0.53 0.48 0.46 0.47 0.47 0.44 0.39 0.38 0.37 0.33 0.22 0.27 0.26 0.24 0.29 0.32 0.35 0.40 0.42 0.44 0.44
1.30 1.27 1.28 1.28 1.00 1.31 1.20 0.96 0.57 0.42 0.58 0.47 0.50 0.55 0.53 0.52 0.53 0.52 0.49 0.49 0.44 0.40 0.39 0.44 0.44 0.49 0.49 0.42 0.44 0.40 0.36 0.28 0.25 0.25 0.22 0.31 0.26 0.26 0.33 0.36 0.39 0.40 0.43 0.45 0.45
1.39 1.37 1.37 1.34 1.35 1.33 1.14 0.78 0.45 0.51 0.53 0.58 0.54 0.55 0.49 0.52 0.50 0.49 0.46 0.43 0.48 0.46 0.41 0.35 0.33 0.43 0.48 0.43 0.39 0.37 0.36 0.29 0.21 0.22 0.24 0.32 0.23 0.27 0.38 0.42 0.44 0.46 0.45 0.44 0.41
1.45 1.35 1.29 1.35 1.40 1.30 0.96 0.57 0.49 0.56 0.62 0.57 0.56 0.50 0.49 0.53 0.51 0.49 0.46 0.44 0.47 0.50 0.41 0.39 0.38 0.49 0.48 0.48 0.46 0.38 0.33 0.41 0.34 0.35 0.28 0.29 0.32 0.36 0.41 0.40 0.42 0.41 0.41 0.38 0.39
1.29 1.21 1.17 1.39 1.41 1.17 0.81 0.60 0.61 0.70 0.68 0.65 0.50 0.54 0.47 0.52 0.49 0.50 0.47 0.52 0.50 0.56 0.56 0.47 0.35 0.45 0.46 0.47 0.47 0.43 0.45 0.33 0.35 0.24 0.21 0.24 0.24 0.24 0.29 0.32 0.34 0.35 0.37 0.39 0.41
1.22 0.97 1.18 1.38 1.31 0.94 0.64 0.63 0.68 0.76 0.73 0.65 0.57 0.55 0.54 0.52 0.52 0.48 0.49 0.55 0.56 0.52 0.53 0.48 0.41 0.37 0.41 0.35 0.33 0.36 0.34 0.35 0.34 0.30 0.22 0.18 0.18 0.29 0.28 0.31 0.32 0.35 0.38 0.39 0.41
1.10 0.80 1.19 1.30 0.82 0.81 0.67 0.71 0.74 0.72 0.76 0.69 0.67 0.62 0.56 0.57 0.52 0.50 0.49 0.52 0.59 0.54 0.45 0.48 0.40 0.31 0.33 0.42 0.43 0.39 0.34 0.34 0.26 0.23 0.27 0.26 0.20 0.36 0.35 0.36 0.37 0.37 0.40 0.42 0.43
0.92 0.90 1.15 1.13 0.65 0.65 0.74 0.71 0.73 0.70 0.69 0.67 0.63 0.65 0.64 0.56 0.47 0.51 0.52 0.61 0.60 0.55 0.49 0.50 0.39 0.29 0.31 0.38 0.41 0.36 0.38 0.37 0.36 0.34 0.26 0.23 0.22 0.37 0.39 0.40 0.40 0.38 0.39 0.39 0.38
0.90 0.69 0.83 0.90 0.86 0.71 0.67 0.65 0.63 0.75 0.71 0.72 0.66 0.66 0.60 0.54 0.57 0.50 0.51 0.58 0.61 0.57 0.60 0.58 0.44 0.35 0.26 0.30 0.33 0.31 0.33 0.35 0.33 0.28 0.27 0.26 0.27 0.33 0.36 0.35 0.35 0.34 0.33 0.31 0.28
0.84 0.70 0.78 0.62 0.67 0.71 0.72 0.67 0.61 0.59 0.69 0.71 0.64 0.61 0.58 0.50 0.51 0.48 0.54 0.56 0.58 0.59 0.57 0.53 0.37 0.39 0.38 0.39 0.37 0.34 0.31 0.31 0.31 0.30 0.26 0.26 0.24 0.26 0.28 0.28 0.29 0.29 0.25 0.21 0.20
0.73 0.69 0.76 0.71 0.74 0.69 0.68 0.61 0.60 0.61 0.61 0.58 0.59 0.63 0.61 0.51 0.51 0.47 0.53 0.52 0.49 0.54 0.49 0.50 0.36 0.38 0.33 0.38 0.36 0.33 0.35 0.36 0.33 0.36 0.36 0.34 0.26 0.28 0.27 0.24 0.19 0.16 0.16 0.18 0.19
0.81 0.84 0.75 0.67 0.66 0.61 0.59 0.61 0.62 0.66 0.65 0.65 0.62 0.60 0.56 0.58 0.64 0.62 0.60 0.57 0.52 0.45 0.43 0.42 0.38 0.33 0.27 0.33 0.33 0.26 0.27 0.29 0.31 0.31 0.28 0.18 0.17 0.17 0.12 0.13 0.14 0.17 0.18 0.17 0.17

GFSSW_prec_pwat_024.txt.gz
Precipitable_Water
0.54 0.54 0.54 0.53 0.53 0.53 0.54 0.54 0.54 0.55 0.55 0.55 0.54 0.51 0.50 0.47 0.41 0.34 0.20 0.29 0.32 0.38 0.35 0.31 0.30 0.29 0.30 0.25 0.27 0.25 0.12 0.11 0.15 0.17 0.21 0.29 0.27 0.32 0.35 0.31 0.32 0.34 0.34 0.37 0.40
0.55 0.54 0.54 0.55 0.55 0.55 0.56 0.56 0.57 0.59 0.60 0.61 0.60 0.57 0.55 0.51 0.36 0.26 0.38 0.43 0.40 0.37 0.28 0.23 0.22 0.25 0.21 0.24 0.25 0.18 0.12 0.12 0.21 0.23 0.23 0.28 0.28 0.29 0.29 0.30 0.31 0.34 0.39 0.41 0.42
0.56 0.55 0.55 0.55 0.56 0.57 0.59 0.60 0.61 0.64 0.65 0.67 0.65 0.64 0.61 0.57 0.31 0.25 0.42 0.41 0.40 0.38 0.32 0.31 0.29 0.25 0.19 0.25 0.24 0.22 0.15 0.20 0.24 0.29 0.30 0.29 0.30 0.34 0.31 0.29 0.34 0.34 0.36 0.40 0.41
0.59 0.56 0.56 0.57 0.57 0.59 0.62 0.65 0.67 0.68 0.71 0.73 0.70 0.68 0.65 0.51 0.20 0.33 0.41 0.39 0.41 0.40 0.33 0.30 0.27 0.22 0.19 0.17 0.26 0.19 0.26 0.27 0.30 0.33 0.33 0.31 0.35 0.32 0.34 0.35 0.41 0.41 0.42 0.43 0.43
0.59 0.58 0.58 0.59 0.60 0.63 0.67 0.69 0.72 0.74 0.78 0.78 0.74 0.70 0.55 0.36 0.36 0.60 0.54 0.46 0.43 0.40 0.33 0.29 0.27 0.27 0.21 0.25 0.26 0.26 0.30 0.33 0.36 0.37 0.36 0.37 0.33 0.33 0.33 0.39 0.44 0.45 0.46 0.45 0.46
0.60 0.60 0.61 0.62 0.64 0.67 0.71 0.75 0.78 0.81 0.83 0.80 0.76 0.71 0.48 0.30 0.57 0.62 0.56 0.49 0.44 0.41 0.38 0.37 0.33 0.37 0.32 0.31 0.31 0.34 0.34 0.35 0.36 0.35 0.35 0.32 0.33 0.34 0.36 0.41 0.41 0.43 0.43 0.45 0.45
0.61 0.62 0.64 0.67 0.69 0.72 0.77 0.82 0.85 0.85 0.84 0.79 0.76 0.67 0.47 0.41 0.64 0.67 0.59 0.52 0.52 0.48 0.41 0.45 0.45 0.40 0.40 0.34 0.41 0.39 0.33 0.35 0.36 0.37 0.35 0.38 0.32 0.34 0.39 0.41 0.40 0.41 0.43 0.43 0.45
0.63 0.65 0.68 0.71 0.74 0.78 0.85 0.89 0.89 0.85 0.81 0.76 0.74 0.62 0.42 0.57 0.71 0.65 0.62 0.56 0.58 0.56 0.52 0.53 0.52 0.46 0.43 0.44 0.39 0.36 0.35 0.29 0.35 0.38 0.38 0.37 0.29 0.36 0.40 0.39 0.39 0.41 0.42 0.44 0.46
0.67 0.70 0.74 0.75 0.78 0.85 0.91 0.93 0.88 0.83 0.83 0.83 0.67 0.55 0.40 0.60 0.52 0.60 0.61 0.51 0.54 0.56 0.57 0.57 0.52 0.44 0.44 0.38 0.34 0.35 0.29 0.30 0.31 0.37 0.36 0.35 0.30 0.36 0.40 0.40 0.40 0.43 0.45 0.45 0.45
0.73 0.76 0.78 0.81 0.88 0.96 0.99 0.98 0.89 0.85 0.82 0.80 0.71 0.50 0.52 0.44 0.51 0.57 0.62 0.58 0.51 0.51 0.48 0.47 0.45 0.40 0.41 0.36 0.28 0.30 0.30 0.32 0.31 0.36 0.37 0.34 0.34 0.39 0.42 0.43 0.43 0.44 0.45 0.44 0.44
0.78 0.80 0.83 0.88 0.96 1.01 0.98 0.86 0.66 0.60 0.68 0.50 0.49 0.50 0.49 0.57 0.61 0.54 0.60 0.54 0.51 0.46 0.38 0.44 0.37 0.34 0.38 0.40 0.40 0.38 0.35 0.33 0.36 0.39 0.36 0.35 0.35 0.38 0.43 0.43 0.42 0.43 0.43 0.42 0.42
0.88 0.89 0.92 0.98 1.03 1.05 0.99 0.71 0.68 0.71 0.49 0.63 0.64 0.59 0.61 0.59 0.49 0.52 0.61 0.46 0.44 0.38 0.43 0.38 0.33 0.41 0.42 0.42 0.40 0.39 0.36 0.35 0.37 0.40 0.37 0.35 0.34 0.39 0.41 0.42 0.43 0.41 0.41 0.41 0.42
1.00 1.02 1.03 1.06 1.11 1.03 0.91 0.82 0.92 0.86 0.56 0.58 0.67 0.66 0.69 0.67 0.58 0.58 0.61 0.52 0.46 0.42 0.43 0.38 0.43 0.49 0.45 0.42 0.40 0.40 0.37 0.36 0.34 0.38 0.39 0.36 0.32 0.36 0.41 0.43 0.44 0.43 0.43 0.43 0.42
1.11 1.12 1.14 1.22 1.07 1.04 0.91 1.05 1.02 0.98 0.53 0.51 0.58 0.64 0.68 0.70 0.59 0.71 0.67 0.58 0.52 0.48 0.51 0.47 0.52 0.49 0.49 0.46 0.46 0.37 0.43 0.39 0.36 0.35 0.28 0.37 0.21 0.28 0.33 0.35 0.39 0.41 0.42 0.43 0.43
1.21 1.20 1.20 1.25 1.05 0.93 0.99 1.07 1.06 0.90 0.34 0.55 0.58 0.72 0.67 0.62 0.60 0.60 0.70 0.62 0.52 0.53 0.54 0.48 0.50 0.49 0.45 0.46 0.48 0.40 0.46 0.42 0.40 0.35 0.30 0.30 0.25 0.25 0.31 0.30 0.34 0.39 0.42 0.42 0.42
1.19 1.21 1.23 1.19 1.15 1.12 1.10 1.09 0.96 0.56 0.34 0.48 0.56 0.53 0.55 0.57 0.58 0.61 0.59 0.65 0.64 0.56 0.55 0.54 0.58 0.53 0.50 0.51 0.49 0.48 0.43 0.40 0.37 0.32 0.22 0.28 0.27 0.23 0.27 0.31 0.35 0.39 0.41 0.41 0.42
1.22 1.21 1.20 1.22 0.95 1.23 1.13 0.96 0.58 0.40 0.56 0.47 0.48 0.52 0.50 0.50 0.52 0.54 0.54 0.52 0.48 0.43 0.43 0.48 0.49 0.53 0.51 0.43 0.47 0.43 0.36 0.27 0.25 0.24 0.21 0.30 0.26 0.26 0.34 0.37 0.38 0.38 0.41 0.44 0.45
1.30 1.28 1.27 1.25 1.28 1.24 1.06 0.75 0.44 0.48 0.48 0.54 0.52 0.51 0.45 0.50 0.52 0.51 0.48 0.47 0.53 0.48 0.43 0.38 0.36 0.46 0.52 0.45 0.40 0.38 0.36 0.28 0.21 0.21 0.23 0.31 0.22 0.27 0.38 0.41 0.42 0.44 0.44 0.45 0.44
1.39 1.28 1.23 1.28 1.34 1.25 0.91 0.55 0.46 0.53 0.59 0.54 0.54 0.47 0.46 0.50 0.50 0.49 0.47 0.47 0.50 0.50 0.42 0.40 0.39 0.51 0.50 0.50 0.47 0.39 0.33 0.40 0.32 0.31 0.25 0.27 0.32 0.37 0.40 0.39 0.40 0.39 0.41 0.40 0.40
1.23 1.16 1.12 1.36 1.36 1.14 0.78 0.58 0.55 0.68 0.66 0.62 0.49 0.52 0.45 0.49 0.46 0.47 0.46 0.50 0.49 0.53 0.56 0.50 0.40 0.50 0.50 0.50 0.48 0.42 0.43 0.32 0.34 0.23 0.19 0.22 0.23 0.25 0.32 0.33 0.35 0.35 0.35 0.37 0.39
1.18 0.94 1.16 1.41 1.29 0.92 0.60 0.62 0.67 0.75 0.75 0.64 0.58 0.55 0.53 0.51 0.50 0.47 0.48 0.53 0.56 0.55 0.55 0.54 0.48 0.44 0.48 0.42 0.38 0.39 0.36 0.37 0.36 0.32 0.23 0.18 0.20 0.32 0.31 0.34 0.33 0.35 0.38 0.40 0.41
1.08 0.77 1.22 1.29 0.81 0.80 0.65 0.69 0.77 0.72 0.79 0.70 0.66 0.62 0.56 0.56 0.53 0.50 0.48 0.55 0.63 0.59 0.50 0.55 0.49 0.38 0.39 0.47 0.47 0.42 0.35 0.35 0.28 0.25 0.28 0.27 0.21 0.39 0.37 0.37 0.38 0.37 0.40 0.42 0.44
0.90 0.90 1.19 1.17 0.65 0.67 0.75 0.75 0.78 0.71 0.70 0.68 0.63 0.66 0.66 0.59 0.52 0.55 0.56 0.65 0.64 0.59 0.53 0.55 0.44 0.34 0.36 0.41 0.46 0.37 0.37 0.36 0.35 0.34 0.27 0.26 0.24 0.39 0.40 0.39 0.40 0.40 0.41 0.44 0.44
0.89 0.69 0.84 0.90 0.89 0.75 0.69 0.67 0.66 0.78 0.73 0.74 0.69 0.71 0.66 0.60 0.63 0.56 0.56 0.63 0.67 0.62 0.63 0.59 0.46 0.38 0.30 0.33 0.37 0.33 0.35 0.38 0.36 0.30 0.30 0.30 0.31 0.35 0.38 0.39 0.41 0.42 0.42 0.41 0.39
0.84 0.69 0.78 0.62 0.70 0.75 0.77 0.70 0.66 0.64 0.75 0.76 0.68 0.66 0.63 0.57 0.58 0.56 0.60 0.60 0.63 0.64 0.61 0.58 0.43 0.45 0.43 0.44 0.43 0.38 0.34 0.34 0.32 0.34 0.30 0.29 0.31 0.34 0.37 0.37 0.39 0.41 0.39 0.37 0.35
0.72 0.68 0.75 0.70 0.74 0.72 0.73 0.66 0.65 0.68 0.70 0.64 0.64 0.67 0.68 0.60 0.60 0.55 0.60 0.57 0.54 0.59 0.56 0.60 0.45 0.47 0.41 0.45 0.43 0.37 0.36 0.36 0.36 0.36 0.34 0.35 0.30 0.38 0.38 0.43 0.41 0.36 0.32 0.26 0.22
0.82 0.83 0.74 0.66 0.65 0.63 0.64 0.66 0.66 0.71 0.72 0.75 0.71 0.67 0.62 0.65 0.71 0.71 0.70 0.66 0.63 0.57 0.54 0.53 0.48 0.42 0.33 0.39 0.37 0.29 0.30 0.32 0.34 0.35 0.33 0.28 0.33 0.41 0.38 0.30 0.24 0.20 0.17 0.17 0.20

GFSSW_prec_pwat_030.txt.gz
Precipitable_Water
0.57 0.56 0.54 0.53 0.52 0.53 0.54 0.53 0.53 0.55 0.56 0.57 0.57 0.55 0.54 0.52 0.47 0.39 0.22 0.30 0.35 0.39 0.34 0.30 0.29 0.28 0.28 0.23 0.24 0.21 0.12 0.11 0.14 0.16 0.19 0.26 0.25 0.31 0.35 0.30 0.32 0.35 0.36 0.39 0.44
0.57 0.56 0.55 0.53 0.53 0.54 0.55 0.57 0.58 0.59 0.59 0.60 0.61 0.57 0.57 0.56 0.40 0.29 0.40 0.43 0.41 0.38 0.27 0.23 0.20 0.23 0.20 0.22 0.22 0.16 0.12 0.12 0.19 0.21 0.22 0.26 0.27 0.29 0.28 0.29 0.30 0.35 0.40 0.43 0.45
0.56 0.56 0.56 0.55 0.54 0.55 0.57 0.59 0.62 0.63 0.64 0.64 0.64 0.61 0.59 0.57 0.32 0.27 0.44 0.43 0.41 0.37 0.31 0.29 0.26 0.21 0.18 0.22 0.21 0.18 0.13 0.16 0.21 0.24 0.27 0.28 0.29 0.31 0.29 0.28 0.32 0.33 0.37 0.42 0.44
0.58 0.57 0.58 0.57 0.56 0.57 0.59 0.62 0.65 0.66 0.67 0.67 0.67 0.64 0.61 0.48 0.20 0.34 0.42 0.41 0.41 0.38 0.32 0.27 0.23 0.18 0.17 0.16 0.23 0.16 0.21 0.22 0.25 0.29 0.29 0.29 0.32 0.31 0.33 0.34 0.38 0.39 0.41 0.43 0.44
0.62 0.60 0.59 0.59 0.59 0.59 0.61 0.64 0.66 0.67 0.69 0.71 0.70 0.66 0.52 0.35 0.34 0.56 0.48 0.45 0.42 0.37 0.31 0.26 0.22 0.23 0.19 0.22 0.24 0.21 0.24 0.27 0.31 0.32 0.33 0.35 0.33 0.34 0.34 0.38 0.40 0.41 0.42 0.42 0.43
0.65 0.64 0.61 0.60 0.60 0.61 0.63 0.66 0.68 0.69 0.70 0.72 0.71 0.67 0.46 0.29 0.54 0.58 0.53 0.48 0.42 0.38 0.34 0.33 0.30 0.32 0.26 0.26 0.26 0.29 0.29 0.32 0.35 0.35 0.36 0.34 0.34 0.36 0.36 0.40 0.40 0.41 0.42 0.43 0.43
0.68 0.67 0.65 0.63 0.61 0.62 0.64 0.67 0.70 0.72 0.71 0.72 0.70 0.61 0.43 0.38 0.61 0.62 0.55 0.49 0.49 0.43 0.36 0.40 0.40 0.34 0.32 0.29 0.35 0.34 0.30 0.34 0.35 0.36 0.35 0.38 0.33 0.33 0.38 0.41 0.40 0.41 0.42 0.42 0.43
0.69 0.68 0.67 0.66 0.64 0.64 0.65 0.70 0.73 0.72 0.73 0.73 0.70 0.56 0.37 0.55 0.68 0.60 0.58 0.51 0.52 0.50 0.46 0.48 0.47 0.39 0.35 0.37 0.35 0.32 0.33 0.28 0.35 0.37 0.38 0.37 0.28 0.35 0.39 0.39 0.38 0.39 0.41 0.42 0.44
0.67 0.67 0.68 0.67 0.67 0.67 0.69 0.73 0.76 0.74 0.77 0.77 0.62 0.51 0.37 0.59 0.51 0.60 0.58 0.48 0.51 0.51 0.51 0.50 0.47 0.39 0.38 0.32 0.30 0.32 0.26 0.29 0.33 0.39 0.38 0.36 0.32 0.37 0.40 0.39 0.39 0.41 0.43 0.45 0.46
0.71 0.69 0.69 0.69 0.69 0.69 0.72 0.77 0.78 0.75 0.75 0.73 0.64 0.45 0.47 0.39 0.49 0.56 0.59 0.53 0.47 0.47 0.44 0.43 0.40 0.34 0.34 0.32 0.24 0.27 0.28 0.31 0.32 0.37 0.39 0.36 0.36 0.39 0.42 0.41 0.40 0.42 0.44 0.45 0.45
0.79 0.74 0.71 0.70 0.71 0.72 0.72 0.67 0.50 0.48 0.59 0.43 0.45 0.44 0.44 0.50 0.55 0.52 0.55 0.50 0.48 0.44 0.35 0.41 0.34 0.29 0.34 0.36 0.35 0.34 0.33 0.32 0.35 0.39 0.36 0.36 0.37 0.40 0.42 0.41 0.40 0.42 0.43 0.44 0.44
0.80 0.78 0.79 0.77 0.78 0.81 0.77 0.54 0.54 0.60 0.42 0.55 0.55 0.53 0.54 0.54 0.43 0.50 0.58 0.44 0.43 0.36 0.40 0.37 0.31 0.38 0.40 0.39 0.36 0.35 0.32 0.31 0.36 0.38 0.37 0.36 0.35 0.41 0.43 0.42 0.42 0.42 0.43 0.43 0.44
0.86 0.80 0.76 0.82 0.86 0.84 0.69 0.65 0.80 0.78 0.49 0.48 0.56 0.53 0.53 0.52 0.43 0.45 0.51 0.45 0.39 0.36 0.37 0.34 0.36 0.41 0.38 0.37 0.35 0.35 0.33 0.33 0.35 0.39 0.40 0.38 0.36 0.40 0.43 0.44 0.44 0.44 0.44 0.44 0.44
1.00 0.88 0.86 0.88 0.78 0.77 0.65 0.79 0.92 0.84 0.40 0.39 0.43 0.52 0.54 0.53 0.42 0.54 0.54 0.46 0.41 0.36 0.40 0.39 0.44 0.42 0.40 0.37 0.39 0.33 0.43 0.41 0.39 0.37 0.31 0.42 0.28 0.36 0.38 0.38 0.39 0.40 0.42 0.42 0.43
1.16 1.04 0.94 0.97 0.81 0.69 0.71 0.92 0.98 0.77 0.24 0.41 0.47 0.65 0.57 0.49 0.49 0.48 0.58 0.50 0.41 0.44 0.45 0.41 0.44 0.43 0.41 0.42 0.47 0.42 0.48 0.45 0.45 0.41 0.39 0.38 0.32 0.33 0.39 0.33 0.35 0.38 0.40 0.42 0.43
1.30 1.18 1.10 1.02 0.98 0.91 0.96 0.98 0.89 0.48 0.27 0.39 0.51 0.49 0.52 0.54 0.52 0.55 0.55 0.61 0.59 0.52 0.52 0.51 0.57 0.53 0.50 0.52 0.52 0.52 0.48 0.48 0.46 0.42 0.30 0.36 0.34 0.30 0.32 0.33 0.35 0.39 0.41 0.41 0.41
1.37 1.33 1.21 1.13 0.85 1.05 1.02 0.86 0.49 0.33 0.46 0.40 0.46 0.52 0.54 0.53 0.55 0.56 0.52 0.50 0.48 0.43 0.42 0.48 0.48 0.54 0.55 0.50 0.53 0.50 0.45 0.35 0.31 0.31 0.27 0.36 0.33 0.32 0.36 0.37 0.38 0.38 0.40 0.42 0.42
1.37 1.38 1.33 1.25 1.22 1.12 0.99 0.67 0.37 0.35 0.39 0.49 0.51 0.52 0.48 0.53 0.53 0.54 0.51 0.47 0.54 0.52 0.44 0.39 0.35 0.47 0.53 0.51 0.47 0.48 0.45 0.36 0.26 0.26 0.28 0.36 0.27 0.31 0.40 0.42 0.42 0.43 0.43 0.42 0.41
1.36 1.27 1.20 1.28 1.30 1.15 0.83 0.51 0.35 0.41 0.49 0.47 0.51 0.46 0.47 0.51 0.52 0.51 0.50 0.48 0.52 0.51 0.41 0.39 0.39 0.51 0.52 0.55 0.54 0.46 0.40 0.49 0.38 0.37 0.31 0.32 0.34 0.40 0.42 0.41 0.41 0.41 0.42 0.41 0.42
1.18 1.10 1.07 1.31 1.31 1.07 0.72 0.52 0.50 0.58 0.59 0.56 0.44 0.50 0.43 0.47 0.48 0.49 0.48 0.52 0.51 0.55 0.57 0.48 0.39 0.49 0.51 0.55 0.55 0.49 0.52 0.39 0.40 0.29 0.26 0.29 0.30 0.30 0.36 0.38 0.41 0.41 0.41 0.43 0.43
1.13 0.89 1.08 1.27 1.22 0.85 0.56 0.52 0.61 0.69 0.66 0.56 0.51 0.50 0.49 0.48 0.49 0.45 0.46 0.50 0.55 0.55 0.59 0.56 0.49 0.47 0.51 0.46 0.46 0.47 0.44 0.45 0.44 0.39 0.30 0.26 0.28 0.39 0.38 0.39 0.39 0.41 0.43 0.43 0.42
1.04 0.72 1.13 1.21 0.74 0.73 0.59 0.58 0.70 0.67 0.72 0.65 0.62 0.56 0.52 0.53 0.48 0.47 0.45 0.50 0.58 0.58 0.51 0.59 0.53 0.43 0.45 0.54 0.56 0.53 0.47 0.46 0.38 0.35 0.36 0.33 0.29 0.43 0.42 0.43 0.43 0.42 0.42 0.44 0.45
0.85 0.86 1.15 1.10 0.59 0.60 0.65 0.65 0.69 0.65 0.66 0.65 0.61 0.61 0.61 0.54 0.48 0.51 0.52 0.60 0.61 0.58 0.54 0.58 0.51 0.42 0.42 0.47 0.52 0.46 0.48 0.48 0.47 0.45 0.35 0.31 0.29 0.44 0.43 0.42 0.44 0.42 0.44 0.46 0.45
0.86 0.67 0.83 0.90 0.84 0.69 0.62 0.59 0.60 0.72 0.67 0.69 0.64 0.69 0.61 0.55 0.58 0.52 0.53 0.61 0.65 0.62 0.64 0.62 0.54 0.45 0.35 0.41 0.47 0.42 0.45 0.48 0.46 0.37 0.35 0.32 0.36 0.39 0.41 0.43 0.44 0.46 0.47 0.47 0.46
0.80 0.68 0.77 0.62 0.67 0.70 0.70 0.65 0.59 0.59 0.69 0.73 0.66 0.62 0.60 0.55 0.56 0.52 0.59 0.62 0.65 0.66 0.64 0.59 0.48 0.50 0.49 0.50 0.50 0.47 0.45 0.45 0.42 0.41 0.36 0.36 0.36 0.41 0.44 0.45 0.48 0.50 0.47 0.46 0.45
0.66 0.63 0.73 0.67 0.72 0.70 0.68 0.62 0.61 0.64 0.67 0.62 0.61 0.65 0.68 0.58 0.55 0.54 0.62 0.64 0.60 0.65 0.61 0.62 0.50 0.55 0.49 0.52 0.51 0.46 0.48 0.46 0.45 0.44 0.43 0.42 0.37 0.49 0.52 0.54 0.51 0.48 0.47 0.46 0.46
0.80 0.80 0.70 0.65 0.63 0.62 0.64 0.64 0.62 0.70 0.72 0.74 0.70 0.69 0.65 0.62 0.75 0.76 0.75 0.74 0.70 0.63 0.61 0.59 0.56 0.51 0.42 0.53 0.50 0.42 0.42 0.46 0.45 0.46 0.45 0.39 0.42 0.52 0.50 0.50 0.48 0.47 0.47 0.45 0.46

GFSSW_prec_pwat_033.txt.gz
Precipitable_Water
0.57 0.56 0.55 0.54 0.54 0.54 0.54 0.53 0.54 0.54 0.55 0.55 0.57 0.55 0.53 0.52 0.48 0.42 0.24 0.32 0.36 0.37 0.34 0.30 0.29 0.28 0.29 0.24 0.23 0.20 0.14 0.13 0.15 0.16 0.21 0.24 0.23 0.29 0.33 0.30 0.32 0.34 0.36 0.40 0.43
0.57 0.55 0.54 0.54 0.53 0.54 0.55 0.55 0.54 0.55 0.56 0.58 0.59 0.59 0.56 0.56 0.43 0.31 0.41 0.41 0.40 0.38 0.28 0.25 0.23 0.23 0.22 0.22 0.22 0.18 0.14 0.15 0.20 0.21 0.22 0.24 0.26 0.29 0.28 0.28 0.29 0.33 0.39 0.42 0.44
0.59 0.57 0.55 0.54 0.54 0.54 0.54 0.56 0.57 0.57 0.58 0.60 0.61 0.62 0.60 0.57 0.34 0.29 0.42 0.42 0.41 0.37 0.31 0.29 0.26 0.22 0.19 0.21 0.21 0.19 0.15 0.17 0.19 0.22 0.25 0.25 0.27 0.31 0.28 0.27 0.31 0.33 0.37 0.40 0.43
0.61 0.59 0.58 0.56 0.54 0.54 0.56 0.57 0.59 0.60 0.61 0.62 0.63 0.63 0.60 0.50 0.21 0.38 0.41 0.41 0.40 0.37 0.32 0.27 0.23 0.19 0.18 0.18 0.22 0.17 0.18 0.19 0.23 0.26 0.26 0.26 0.31 0.29 0.30 0.33 0.38 0.38 0.40 0.40 0.42
0.63 0.60 0.59 0.58 0.57 0.56 0.57 0.58 0.60 0.62 0.64 0.64 0.65 0.64 0.52 0.35 0.35 0.54 0.44 0.42 0.40 0.35 0.30 0.25 0.21 0.21 0.19 0.22 0.23 0.20 0.22 0.24 0.27 0.28 0.30 0.32 0.29 0.30 0.33 0.39 0.40 0.39 0.40 0.40 0.43
0.65 0.62 0.60 0.59 0.59 0.58 0.58 0.60 0.62 0.64 0.65 0.65 0.66 0.64 0.46 0.28 0.55 0.56 0.52 0.45 0.41 0.37 0.32 0.31 0.28 0.30 0.26 0.25 0.23 0.28 0.26 0.26 0.29 0.31 0.34 0.32 0.33 0.36 0.36 0.41 0.39 0.39 0.40 0.42 0.43
0.70 0.66 0.64 0.62 0.61 0.60 0.60 0.61 0.64 0.66 0.64 0.65 0.64 0.59 0.42 0.37 0.60 0.58 0.52 0.48 0.47 0.43 0.36 0.39 0.38 0.33 0.32 0.27 0.32 0.30 0.26 0.30 0.32 0.35 0.35 0.38 0.32 0.32 0.39 0.42 0.39 0.39 0.41 0.42 0.43
0.74 0.71 0.68 0.66 0.65 0.63 0.62 0.63 0.66 0.68 0.66 0.67 0.66 0.56 0.36 0.55 0.65 0.55 0.53 0.49 0.50 0.49 0.45 0.45 0.44 0.39 0.35 0.36 0.32 0.28 0.29 0.26 0.36 0.37 0.38 0.37 0.29 0.38 0.41 0.39 0.38 0.39 0.41 0.42 0.43
0.72 0.72 0.71 0.69 0.68 0.67 0.66 0.65 0.68 0.69 0.68 0.69 0.58 0.50 0.36 0.57 0.47 0.56 0.56 0.46 0.49 0.49 0.47 0.47 0.46 0.39 0.36 0.29 0.27 0.29 0.23 0.29 0.32 0.37 0.37 0.36 0.33 0.40 0.41 0.40 0.39 0.40 0.42 0.42 0.44
0.70 0.72 0.72 0.71 0.70 0.70 0.68 0.68 0.71 0.68 0.66 0.65 0.60 0.43 0.44 0.36 0.49 0.55 0.57 0.52 0.46 0.45 0.42 0.41 0.39 0.32 0.33 0.29 0.21 0.27 0.28 0.30 0.30 0.35 0.37 0.36 0.36 0.40 0.42 0.41 0.41 0.43 0.43 0.43 0.44
0.77 0.74 0.74 0.73 0.73 0.73 0.68 0.61 0.43 0.42 0.50 0.35 0.43 0.42 0.42 0.48 0.54 0.50 0.53 0.49 0.48 0.42 0.32 0.39 0.31 0.26 0.31 0.34 0.34 0.33 0.32 0.31 0.35 0.39 0.36 0.36 0.36 0.39 0.42 0.42 0.42 0.43 0.44 0.43 0.44
0.90 0.81 0.80 0.78 0.77 0.77 0.72 0.49 0.50 0.55 0.37 0.51 0.50 0.49 0.49 0.49 0.38 0.46 0.54 0.41 0.39 0.32 0.38 0.35 0.28 0.36 0.39 0.39 0.36 0.35 0.32 0.31 0.37 0.39 0.37 0.35 0.34 0.39 0.41 0.40 0.44 0.44 0.44 0.44 0.44
1.22 0.98 0.87 0.85 0.85 0.77 0.60 0.57 0.67 0.65 0.40 0.41 0.49 0.47 0.48 0.48 0.40 0.42 0.50 0.46 0.39 0.36 0.36 0.32 0.35 0.40 0.39 0.37 0.34 0.34 0.32 0.33 0.34 0.38 0.39 0.37 0.32 0.36 0.42 0.45 0.46 0.47 0.47 0.46 0.44
1.33 1.15 1.01 0.97 0.78 0.71 0.59 0.69 0.79 0.73 0.33 0.33 0.42 0.49 0.50 0.49 0.40 0.52 0.53 0.45 0.39 0.33 0.37 0.35 0.40 0.37 0.37 0.35 0.38 0.32 0.40 0.38 0.37 0.35 0.30 0.41 0.25 0.36 0.42 0.44 0.46 0.45 0.45 0.45 0.44
1.36 1.21 1.15 1.03 0.85 0.65 0.63 0.74 0.87 0.73 0.22 0.37 0.49 0.66 0.55 0.44 0.44 0.43 0.54 0.44 0.35 0.35 0.36 0.33 0.35 0.37 0.36 0.40 0.44 0.39 0.46 0.42 0.42 0.38 0.38 0.38 0.33 0.35 0.44 0.41 0.42 0.45 0.45 0.45 0.45
1.40 1.29 1.16 1.06 1.05 0.91 0.86 0.84 0.80 0.40 0.22 0.36 0.46 0.45 0.45 0.46 0.44 0.47 0.45 0.49 0.48 0.39 0.39 0.39 0.48 0.46 0.46 0.49 0.50 0.51 0.47 0.47 0.46 0.42 0.30 0.36 0.37 0.32 0.37 0.40 0.42 0.45 0.45 0.45 0.45
1.36 1.34 1.24 1.14 0.89 1.15 1.05 0.77 0.43 0.31 0.38 0.33 0.39 0.45 0.44 0.42 0.43 0.45 0.40 0.37 0.35 0.32 0.32 0.41 0.44 0.52 0.55 0.49 0.52 0.49 0.45 0.36 0.32 0.32 0.28 0.39 0.36 0.35 0.42 0.44 0.43 0.43 0.44 0.45 0.45
1.33 1.36 1.31 1.26 1.22 1.13 1.01 0.64 0.35 0.29 0.34 0.47 0.47 0.48 0.43 0.47 0.48 0.50 0.48 0.44 0.50 0.48 0.43 0.40 0.37 0.49 0.53 0.49 0.45 0.45 0.45 0.37 0.29 0.30 0.33 0.40 0.30 0.34 0.45 0.48 0.47 0.47 0.46 0.45 0.44
1.34 1.24 1.17 1.20 1.33 1.20 0.85 0.50 0.42 0.31 0.42 0.42 0.48 0.43 0.44 0.48 0.48 0.48 0.48 0.47 0.50 0.53 0.44 0.43 0.42 0.54 0.52 0.53 0.53 0.43 0.40 0.50 0.41 0.41 0.34 0.34 0.36 0.41 0.44 0.45 0.46 0.46 0.46 0.44 0.44
1.14 1.07 1.04 1.28 1.29 1.07 0.71 0.54 0.49 0.54 0.50 0.51 0.38 0.42 0.38 0.43 0.44 0.46 0.47 0.51 0.50 0.55 0.59 0.50 0.40 0.50 0.51 0.52 0.52 0.48 0.52 0.41 0.42 0.31 0.29 0.32 0.33 0.33 0.39 0.41 0.44 0.45 0.45 0.46 0.46
1.03 0.85 1.05 1.28 1.20 0.84 0.56 0.56 0.53 0.64 0.63 0.51 0.47 0.44 0.42 0.44 0.46 0.44 0.46 0.51 0.55 0.55 0.59 0.55 0.47 0.45 0.49 0.44 0.43 0.46 0.44 0.46 0.45 0.41 0.32 0.29 0.31 0.43 0.43 0.44 0.44 0.46 0.47 0.47 0.46
0.94 0.68 1.11 1.22 0.73 0.72 0.59 0.53 0.69 0.65 0.70 0.63 0.59 0.51 0.48 0.51 0.46 0.47 0.46 0.51 0.60 0.59 0.51 0.56 0.51 0.42 0.44 0.52 0.55 0.50 0.47 0.47 0.39 0.37 0.40 0.38 0.31 0.47 0.47 0.47 0.46 0.45 0.47 0.48 0.48
0.75 0.78 1.11 1.07 0.58 0.60 0.65 0.63 0.69 0.66 0.63 0.62 0.57 0.60 0.61 0.53 0.46 0.50 0.52 0.60 0.61 0.58 0.53 0.56 0.48 0.40 0.43 0.48 0.51 0.47 0.50 0.49 0.48 0.47 0.38 0.35 0.31 0.50 0.50 0.48 0.49 0.47 0.48 0.48 0.48
0.73 0.60 0.79 0.86 0.80 0.67 0.62 0.60 0.59 0.72 0.68 0.69 0.63 0.66 0.59 0.55 0.56 0.50 0.52 0.58 0.61 0.60 0.63 0.61 0.51 0.45 0.35 0.42 0.48 0.43 0.46 0.49 0.47 0.39 0.36 0.35 0.39 0.44 0.46 0.47 0.48 0.49 0.49 0.49 0.48
0.71 0.60 0.69 0.58 0.63 0.66 0.67 0.61 0.58 0.59 0.69 0.71 0.63 0.61 0.58 0.53 0.53 0.48 0.57 0.59 0.62 0.62 0.60 0.58 0.47 0.53 0.51 0.53 0.55 0.50 0.47 0.48 0.45 0.40 0.39 0.34 0.40 0.47 0.48 0.49 0.49 0.50 0.51 0.49 0.51
0.60 0.58 0.65 0.63 0.68 0.65 0.63 0.59 0.57 0.59 0.64 0.59 0.58 0.59 0.64 0.57 0.53 0.50 0.57 0.58 0.55 0.61 0.58 0.61 0.49 0.55 0.48 0.54 0.55 0.51 0.52 0.48 0.46 0.46 0.45 0.43 0.40 0.55 0.55 0.55 0.52 0.52 0.52 0.52 0.54
0.70 0.70 0.62 0.57 0.56 0.56 0.59 0.60 0.60 0.66 0.69 0.69 0.65 0.65 0.62 0.58 0.63 0.69 0.72 0.70 0.67 0.62 0.58 0.58 0.54 0.51 0.41 0.54 0.54 0.43 0.38 0.50 0.48 0.49 0.47 0.41 0.43 0.57 0.55 0.54 0.54 0.54 0.55 0.57 0.57